RH
15 18 22 22 23 22 24 46 76 87 81 72 77 72 74 73 74 76 80 82 88 84 78 81 80 80 79 79 77 78 84 89 96 91 79 68 70 73
20 26 28 34 32 28 42 56 71 81 92 72 74 77 81 85 83 84 86 92 75 82 88 87 86 87 95 96 96 93 78 84 81 81 73 81 84 80
29 40 47 50 48 46 48 60 75 85 91 78 77 86 86 76 92 96 96 89 81 89 87 87 80 81 79 79 86 84 87 78 73 74 83 82 90 94
46 54 56 58 56 52 58 79 84 84 93 98 82 83 75 75 90 81 99 97 91 80 77 78 77 77 76 79 79 82 88 82 82 80 80 76 78 81
57 62 62 67 68 67 87 89 89 97 96 92 88 71 86 95 87 96 86 77 79 76 80 83 86 87 87 86 83 85 92 93 92 94 92 89 91 93
62 66 72 77 75 91 93 95 98 96 96 98 97 97 85 84 96 83 78 81 84 81 90 96 93 89 89 89 89 92 96 97 93 90 86 83 78 92
70 74 78 73 91 89 93 95 94 96 97 94 87 95 97 82 87 89 93 96 96 97 97 90 96 91 92 93 93 94 95 95 94 94 94 96 96 95
77 78 70 77 92 93 93 92 92 95 86 97 98 95 92 92 95 99 99 98 98 90 95 90 98 99 80 88 99 100 97 96 96 98 99 98 100 98
74 75 74 92 88 81 87 92 80 97 97 96 91 92 100 94 98 97 99 100 100 99 100 95 82 90 77 78 93 100 99 96 95 97 96 98 98 98
75 76 95 87 88 91 96 95 96 70 72 85 96 96 98 96 98 98 98 100 99 88 96 98 86 86 79 79 75 86 100 100 100 99 98 99 97 97
72 98 97 94 91 95 97 95 96 79 66 89 100 99 96 100 99 96 94 100 99 98 88 100 86 99 96 86 82 85 83 99 100 99 100 98 98 99
96 90 97 92 94 98 94 97 92 75 98 97 77 69 73 81 99 98 96 98 100 99 84 98 99 100 96 92 84 89 84 76 99 100 100 98 97 96
88 96 78 99 98 90 91 93 94 97 93 81 77 79 84 88 93 96 97 97 97 98 81 98 98 98 100 98 96 88 84 87 95 95 97 100 100 99
96 84 95 97 94 96 98 100 100 99 84 86 93 93 94 92 93 95 95 96 96 97 95 97 97 98 98 100 100 75 85 94 96 96 96 96 97 100
89 100 98 96 86 73 93 100 100 92 95 95 97 93 96 92 90 92 87 90 91 94 96 96 97 97 100 98 97 89 97 89 97 97 97 97 97 98
95 93 79 70 70 90 82 82 88 100 100 97 97 94 92 93 91 93 96 94 95 84 87 89 97 98 95 90 96 94 96 97 98 98 98 98 100 98
95 85 72 77 79 83 84 89 92 94 97 95 95 95 92 97 92 88 94 97 98 97 96 86 91 97 97 96 95 97 98 99 99 98 98 100 100 94
98 83 90 94 95 97 99 96 90 93 95 95 93 96 96 99 97 91 89 100 98 97 100 95 93 84 83 86 98 98 98 99 98 98 99 100 100 100
88 90 94 95 97 97 98 97 94 92 96 94 96 97 97 94 97 94 93 99 94 100 89 96 95 97 94 99 95 99 98 98 98 98 99 100 100 100
90 94 96 94 96 98 96 96 94 93 93 94 97 98 98 99 96 95 96 98 99 96 86 95 95 97 97 98 97 98 98 97 97 98 98 99 99 99
91 90 90 94 97 98 97 96 96 96 97 96 95 96 96 98 95 94 96 98 99 97 86 95 99 98 97 92 94 97 98 98 98 97 98 98 99 99
91 90 85 94 98 98 96 96 94 94 94 95 96 96 96 98 98 98 98 97 97 98 82 96 97 97 95 94 97 98 98 99 98 98 97 93 99 99
91 88 92 96 96 96 96 96 95 95 97 97 97 96 97 96 98 97 98 96 98 96 84 90 96 96 97 96 96 97 97 98 100 97 97 98 98 98
Wind_Speed
26 26 28 32 32 32 30 28 30 38 41 39 35 35 32 33 34 35 36 38 36 37 42 41 40 41 41 41 41 40 41 41 41 40 42 44 43 43
27 30 31 32 33 32 30 28 27 31 40 46 46 42 37 34 37 36 38 35 43 42 40 37 38 39 39 41 40 40 42 43 44 44 45 45 45 47
30 31 32 33 34 33 31 30 30 31 37 51 48 44 47 49 40 35 36 40 39 38 40 45 45 46 45 44 45 46 47 48 47 46 46 46 45 43
29 31 33 34 36 34 32 31 34 35 35 40 52 51 49 48 45 46 37 31 38 44 41 40 41 41 42 42 43 42 42 43 44 43 45 45 44 44
30 33 35 35 38 35 33 35 35 32 34 40 50 51 49 43 47 41 42 45 40 41 39 39 38 39 40 40 40 41 41 41 42 42 42 43 42 42
31 33 34 36 37 33 36 34 34 40 43 43 45 43 46 45 37 44 48 41 45 47 42 37 39 43 41 41 42 43 43 42 44 44 44 44 45 43
31 32 34 36 31 31 32 38 40 41 42 41 46 45 34 49 42 44 46 48 46 36 38 50 41 42 47 44 42 41 41 40 40 40 40 40 41 40
33 36 36 36 31 34 36 34 33 38 43 44 35 46 45 43 45 47 46 38 52 43 33 48 45 45 46 44 40 37 38 39 39 38 39 40 40 39
33 32 35 36 38 39 38 35 39 35 33 37 41 41 43 47 44 44 49 44 46 48 42 47 44 45 44 41 37 37 38 38 39 39 39 39 40 40
32 32 35 39 38 35 38 44 34 43 45 39 35 40 42 44 45 42 44 46 46 46 37 40 45 47 45 43 40 37 37 36 37 37 38 39 40 39
33 34 34 35 37 35 37 41 41 46 38 36 33 38 39 33 33 36 40 40 43 44 43 38 44 45 46 47 39 29 27 30 32 33 34 35 35 36
37 40 36 37 34 34 39 39 42 37 42 40 43 34 33 34 32 32 36 39 41 46 40 37 44 40 34 36 27 40 37 35 31 31 33 34 33 29
39 39 43 34 35 36 33 32 31 36 39 37 36 38 38 37 36 34 33 34 40 43 40 37 42 43 33 39 37 41 36 30 31 29 27 31 32 33
37 41 37 36 35 31 28 27 30 31 32 35 38 39 39 39 37 35 32 33 33 36 34 30 37 39 40 40 38 37 36 36 31 24 20 21 24 31
36 34 34 35 30 29 27 27 28 33 34 36 38 37 37 37 37 37 35 34 33 33 31 31 30 32 31 32 34 40 41 37 18 21 24 19 22 26
36 39 36 30 28 27 30 33 33 32 30 35 35 36 36 37 38 35 37 37 37 38 34 31 30 27 26 21 25 36 33 26 29 20 13 12 15 19
33 34 31 32 33 32 34 36 36 35 35 33 34 36 37 38 37 35 35 35 34 38 40 36 27 21 16 18 28 35 25 26 21 13 16 12 8 12
28 30 32 32 33 34 37 39 37 35 34 33 33 35 36 36 36 35 33 34 34 37 35 32 29 29 27 25 27 36 26 29 29 25 28 28 22 7
28 30 31 32 33 34 37 37 37 35 34 33 34 35 33 33 35 35 34 33 33 34 31 28 25 27 28 21 30 37 28 29 32 37 39 42 40 28
28 30 31 32 32 35 36 36 36 35 33 33 34 32 32 33 34 32 32 30 30 31 29 26 24 22 19 18 19 34 30 26 31 33 36 40 40 34
30 30 31 31 32 35 35 35 35 34 33 32 32 31 32 32 30 28 29 25 25 26 26 24 20 13 15 21 27 32 34 31 28 30 34 37 38 47
29 31 30 30 32 35 35 34 34 32 31 31 32 32 32 30 28 26 25 23 22 21 20 17 14 13 18 22 26 29 34 38 37 36 36 38 32 34
30 30 30 30 33 34 33 33 32 31 31 31 32 32 30 29 24 23 21 18 19 17 17 14 12 14 17 23 27 29 32 35 38 41 40 39 39 41
Wind_Direction
321 318 317 316 316 317 315 313 308 307 308 309 307 307 304 303 303 304 300 298 298 297 296 294 291 288 286 282 278 276 275 274 273 273 273 272 270 266
321 320 320 321 321 322 321 315 311 307 298 306 307 307 305 299 303 301 298 299 302 299 297 293 292 288 286 286 277 278 278 276 275 272 270 267 264 263
321 322 324 326 328 325 321 316 314 312 297 304 306 307 308 309 303 299 296 299 302 300 295 292 290 288 285 280 279 278 276 276 273 269 267 265 267 266
323 323 324 326 327 327 323 321 317 313 301 297 306 307 306 308 306 309 303 295 298 299 297 292 291 288 285 283 280 277 276 274 272 271 269 267 265 264
322 322 323 326 326 325 325 319 313 306 303 300 299 306 307 307 307 302 307 306 299 299 297 293 292 291 287 283 280 278 276 274 271 269 268 267 265 263
321 320 322 323 324 323 317 313 310 309 306 301 299 301 302 308 309 310 307 306 302 307 299 294 295 293 288 284 282 279 277 275 272 268 265 264 262 263
319 317 318 320 316 314 313 312 310 308 309 307 300 298 309 313 311 310 303 302 300 303 302 297 295 291 289 288 284 281 277 274 271 268 266 263 261 258
316 316 321 324 321 316 314 312 310 309 301 302 316 313 310 309 308 305 301 308 306 307 302 298 297 293 298 295 290 283 280 276 272 268 267 263 259 257
319 324 324 326 324 326 324 314 310 307 313 311 310 309 304 309 312 309 306 303 301 302 303 298 306 299 306 305 295 285 279 276 273 270 267 263 263 260
329 328 327 326 327 323 317 315 318 317 317 317 308 307 307 307 306 303 304 304 301 304 304 290 304 302 309 308 305 301 285 278 274 270 266 264 260 256
330 329 327 324 325 320 321 321 320 315 320 320 311 306 307 308 308 309 309 309 303 303 311 299 305 301 306 308 307 303 299 284 280 274 268 264 258 252
327 330 328 326 323 324 322 321 315 322 326 317 314 318 327 329 322 320 318 306 304 305 313 305 306 306 304 304 304 297 302 302 283 275 265 259 257 255
327 324 327 327 324 322 321 313 320 320 315 318 329 333 334 332 333 332 328 321 311 303 321 310 306 310 300 304 303 304 310 309 303 294 270 253 245 237
321 324 326 324 322 322 321 325 321 320 329 335 332 330 333 336 336 337 336 334 329 321 329 332 313 311 310 304 302 319 321 318 315 302 278 259 241 234
324 323 318 322 325 331 332 327 330 340 337 333 329 334 337 339 340 342 341 342 337 341 344 341 331 328 315 308 305 315 322 329 320 305 301 270 246 229
331 320 323 330 337 336 342 345 345 340 331 332 334 338 342 344 343 345 343 345 342 348 353 348 343 335 323 328 327 334 341 317 344 337 304 261 232 219
322 321 335 343 342 344 345 344 343 343 340 340 339 341 344 345 344 349 347 346 345 347 347 350 357 356 345 348 351 352 1 13 14 25 70 90 146 188
323 337 339 340 340 341 340 340 342 342 342 340 342 343 343 343 346 348 350 349 349 351 347 353 358 5 18 27 14 12 31 31 38 61 68 85 91 124
340 341 340 341 341 341 340 340 339 341 341 342 343 343 343 347 348 349 351 349 353 351 355 1 4 6 2 354 22 35 34 49 49 57 66 72 76 84
344 341 342 342 341 340 340 339 338 340 341 343 342 344 347 346 346 348 351 349 351 350 357 6 8 7 360 359 357 32 36 50 62 59 62 75 77 89
342 342 343 341 340 340 340 339 338 339 340 340 345 346 347 345 345 346 350 349 350 353 355 2 6 17 44 60 50 49 53 48 58 70 71 68 67 71
343 341 341 341 341 341 340 339 339 342 342 344 347 347 347 345 343 344 348 347 350 354 357 2 13 37 57 66 64 62 65 69 71 75 80 83 77 73
342 340 340 341 342 341 340 340 340 341 345 347 346 346 346 346 346 346 345 347 351 351 1 15 28 52 73 81 82 75 74 73 77 77 75 78 84 88